• In Netherlands
  • List of Countries
  • For 7 days
  • Water Temperature
  • Satellite Maps
  • Weather Map
  • Weather Widgets
  • user-avatar
    Login

    Hourly Weather Kyrdzhali

    Today, 18 October, Wednesday

    Time Temperature Precipitation Wind Pressure Humidity
    00:00 +16°C° 0 mm 1 mps 733 mmHg 54%
    01:00 +16°C° 0 mm 1 mps 733 mmHg 53%
    02:00 +16°C° 0 mm 1 mps 732 mmHg 53%
    03:00 +15°C° 0 mm 1 mps 732 mmHg 53%
    04:00 +15°C° 0 mm 1 mps 732 mmHg 54%
    05:00 +15°C° 0 mm 1 mps 732 mmHg 54%
    06:00 +16°C° 0 mm 1 mps 732 mmHg 54%
    07:00 +16°C° 0 mm 1 mps 732 mmHg 54%
    08:00 +18°C° 0 mm 1 mps 732 mmHg 51%
    09:00 +19°C° 0 mm 2 mps 732 mmHg 46%
    10:00 +21°C° 0 mm 2 mps 732 mmHg 41%
    11:00 +24°C° 0 mm 2 mps 732 mmHg 36%
    12:00 +24°C° 0 mm 2 mps 731 mmHg 34%
    13:00 +25°C° 0 mm 2 mps 731 mmHg 32%
    14:00 +26°C° 0 mm 2 mps 731 mmHg 30%
    15:00 +24°C° 0 mm 2 mps 731 mmHg 34%
    16:00 +23°C° 0 mm 1 mps 730 mmHg 38%
    17:00 +22°C° 0 mm 1 mps 730 mmHg 41%
    18:00 +21°C° 0 mm 1 mps 730 mmHg 43%
    19:00 +20°C° 0 mm 1 mps 730 mmHg 45%
    20:00 +18°C° 0 mm 1 mps 729 mmHg 47%
    21:00 +18°C° 0 mm 1 mps 729 mmHg 49%
    22:00 +16°C° 0 mm 1 mps 729 mmHg 50%
    23:00 +16°C° 0 mm 1 mps 729 mmHg 51%

    Tomorrow, 19 October, Thursday

    Time Temperature Precipitation Wind Pressure Humidity
    00:00 +16°C° 0 mm 1 mps 729 mmHg 52%
    01:00 +15°C° 0 mm 1 mps 729 mmHg 53%
    02:00 +15°C° 0 mm 1 mps 729 mmHg 54%
    03:00 +15°C° 0 mm 1 mps 729 mmHg 54%
    04:00 +14°C° 0 mm 1 mps 728 mmHg 55%
    05:00 +14°C° 0 mm 1 mps 728 mmHg 55%
    06:00 +15°C° 0 mm 1 mps 728 mmHg 54%
    07:00 +16°C° 0 mm 1 mps 729 mmHg 54%
    08:00 +16°C° 0 mm 1 mps 729 mmHg 53%
    09:00 +19°C° 0 mm 1 mps 729 mmHg 47%
    10:00 +21°C° 0 mm 1 mps 729 mmHg 41%
    11:00 +23°C° 0 mm 1 mps 729 mmHg 34%
    12:00 +24°C° 0 mm 1 mps 729 mmHg 33%
    13:00 +25°C° 0 mm 1 mps 729 mmHg 32%
    14:00 +25°C° 0 mm 2 mps 729 mmHg 30%
    15:00 +24°C° 0 mm 2 mps 728 mmHg 34%
    16:00 +23°C° 0 mm 2 mps 728 mmHg 38%
    17:00 +22°C° 0 mm 1 mps 728 mmHg 42%
    18:00 +21°C° 0 mm 1 mps 728 mmHg 45%
    19:00 +19°C° 0 mm 1 mps 728 mmHg 48%
    20:00 +18°C° 0 mm 1 mps 728 mmHg 51%
    21:00 +18°C° 0 mm 1 mps 728 mmHg 52%
    22:00 +16°C° 0 mm 1 mps 728 mmHg 53%
    23:00 +16°C° 0 mm 1 mps 728 mmHg 54%

    Day after tomorrow, 20 October, Friday

    Time Temperature Precipitation Wind Pressure Humidity
    00:00 +16°C° 0 mm 1 mps 728 mmHg 55%
    01:00 +15°C° 0 mm 1 mps 728 mmHg 55%
    02:00 +15°C° 0 mm 1 mps 728 mmHg 56%
    03:00 +15°C° 0 mm 1 mps 728 mmHg 57%
    04:00 +15°C° 0 mm 1 mps 728 mmHg 57%
    05:00 +14°C° 0 mm 1 mps 727 mmHg 58%
    06:00 +15°C° 0 mm 1 mps 728 mmHg 57%
    07:00 +16°C° 0 mm 1 mps 728 mmHg 56%
    08:00 +18°C° 0 mm 1 mps 728 mmHg 55%
    09:00 +20°C° 0 mm 1 mps 729 mmHg 49%
    10:00 +21°C° 0 mm 1 mps 729 mmHg 43%
    11:00 +23°C° 0 mm 1 mps 729 mmHg 37%
    12:00 +24°C° 0 mm 1 mps 729 mmHg 36%
    13:00 +25°C° 0 mm 1 mps 729 mmHg 35%
    14:00 +25°C° 0 mm 1 mps 728 mmHg 34%
    15:00 +24°C° 0 mm 1 mps 728 mmHg 38%
    16:00 +23°C° 0 mm 1 mps 728 mmHg 42%
    17:00 +22°C° 0 mm 1 mps 728 mmHg 46%
    18:00 +21°C° 0 mm 1 mps 728 mmHg 49%
    19:00 +19°C° 0 mm 1 mps 728 mmHg 51%
    20:00 +18°C° 0 mm 1 mps 728 mmHg 54%
    21:00 +18°C° 0 mm 1 mps 729 mmHg 55%
    22:00 +18°C° 0 mm 1 mps 729 mmHg 56%
    23:00 +16°C° 0 mm 1 mps 729 mmHg 57%

    21 October, Saturday

    Time Temperature Precipitation Wind Pressure Humidity
    00:00 +16°C° 0 mm 1 mps 729 mmHg 58%
    01:00 +16°C° 0 mm 1 mps 729 mmHg 58%
    02:00 +15°C° 0 mm 1 mps 729 mmHg 59%
    03:00 +15°C° 0 mm 1 mps 729 mmHg 59%
    04:00 +15°C° 0 mm 1 mps 728 mmHg 59%
    05:00 +15°C° 0 mm 1 mps 728 mmHg 58%
    06:00 +15°C° 0 mm 1 mps 729 mmHg 57%
    07:00 +16°C° 0 mm 1 mps 729 mmHg 55%
    08:00 +16°C° 0 mm 1 mps 729 mmHg 53%
    09:00 +18°C° 0 mm 2 mps 729 mmHg 48%
    10:00 +20°C° 0 mm 2 mps 730 mmHg 43%
    11:00 +23°C° 0 mm 2 mps 730 mmHg 38%
    12:00 +23°C° 0 mm 2 mps 729 mmHg 38%
    13:00 +24°C° 0 mm 2 mps 729 mmHg 37%
    14:00 +24°C° 0 mm 2 mps 729 mmHg 37%
    15:00 +23°C° 0 mm 2 mps 729 mmHg 41%
    16:00 +21°C° 0 mm 2 mps 729 mmHg 44%
    17:00 +21°C° 0 mm 1 mps 728 mmHg 48%
    18:00 +20°C° 0 mm 1 mps 729 mmHg 51%
    19:00 +19°C° 0 mm 1 mps 729 mmHg 53%
    20:00 +18°C° 0 mm 1 mps 729 mmHg 55%
    21:00 +17°C° 0 mm 2 mps 729 mmHg 58%
    22:00 +16°C° 0 mm 2 mps 729 mmHg 61%
    23:00 +15°C° 0 mm 2 mps 729 mmHg 64%

    22 October, Sunday

    Time Temperature Precipitation Wind Pressure Humidity
    00:00 +15°C° 0 mm 2 mps 729 mmHg 67%
    01:00 +14°C° 0 mm 2 mps 729 mmHg 71%
    02:00 +14°C° 0 mm 2 mps 729 mmHg 74%
    03:00 +13°C° 0 mm 2 mps 729 mmHg 78%
    04:00 +13°C° 0 mm 2 mps 729 mmHg 81%
    05:00 +13°C° 0 mm 2 mps 729 mmHg 84%
    06:00 +13°C° 0 mm 2 mps 729 mmHg 83%
    07:00 +14°C° 0 mm 2 mps 729 mmHg 82%
    08:00 +14°C° 0 mm 2 mps 729 mmHg 81%
    09:00 +16°C° 0 mm 2 mps 729 mmHg 74%
    10:00 +17°C° 0 mm 2 mps 729 mmHg 68%
    11:00 +18°C° 0 mm 2 mps 729 mmHg 61%
    12:00 +19°C° 0 mm 2 mps 729 mmHg 58%
    13:00 +19°C° 0 mm 2 mps 728 mmHg 54%
    14:00 +20°C° 0 mm 2 mps 728 mmHg 51%
    15:00 +19°C° 0 mm 2 mps 728 mmHg 53%
    16:00 +19°C° 0 mm 2 mps 727 mmHg 56%
    17:00 +19°C° 0 mm 1 mps 727 mmHg 58%
    18:00 +18°C° 0 mm 1 mps 727 mmHg 62%
    19:00 +16°C° 0 mm 1 mps 727 mmHg 66%
    20:00 +15°C° 0 mm 1 mps 727 mmHg 70%
    21:00 +15°C° 0 mm 1 mps 727 mmHg 73%
    22:00 +14°C° 0 mm 1 mps 726 mmHg 77%
    23:00 +14°C° 0 mm 1 mps 726 mmHg 80%

    23 October, Monday

    Time Temperature Precipitation Wind Pressure Humidity
    00:00 +13°C° 0 mm 1 mps 726 mmHg 81%
    01:00 +13°C° 0 mm 1 mps 726 mmHg 83%
    02:00 +13°C° 0 mm 1 mps 725 mmHg 85%
    03:00 +12°C° 0 mm 1 mps 725 mmHg 86%
    04:00 +12°C° 0 mm 1 mps 725 mmHg 86%
    05:00 +12°C° 0 mm 1 mps 725 mmHg 87%
    06:00 +12°C° 0 mm 1 mps 725 mmHg 86%
    07:00 +13°C° 0 mm 1 mps 724 mmHg 84%
    08:00 +13°C° 0 mm 1 mps 724 mmHg 82%
    09:00 +15°C° 0 mm 2 mps 724 mmHg 76%
    10:00 +16°C° 0 mm 2 mps 724 mmHg 69%
    11:00 +17°C° 0 mm 2 mps 724 mmHg 62%
    12:00 +18°C° 0 mm 3 mps 724 mmHg 58%
    13:00 +19°C° 0 mm 3 mps 723 mmHg 55%
    14:00 +19°C° 0 mm 3 mps 723 mmHg 51%
    15:00 +19°C° 0 mm 3 mps 723 mmHg 54%
    16:00 +18°C° 0 mm 3 mps 723 mmHg 57%
    17:00 +17°C° 0 mm 2 mps 722 mmHg 60%
    18:00 +16°C° 0 mm 2 mps 722 mmHg 65%
    19:00 +14°C° 0 mm 3 mps 722 mmHg 70%
    20:00 +13°C° 0 mm 3 mps 722 mmHg 75%
    21:00 +13°C° 0 mm 3 mps 722 mmHg 78%
    22:00 +14°C° 0 mm 2 mps 722 mmHg 82%
    23:00 +13°C° 0 mm 2 mps 722 mmHg 86%
    Show more